Location: Most
(50.5330°N, 13.6500°E)
Time: 18:28:31
(UTC+02:00)

ISS - Pass Details

Date: 23 May 2021
Orbit: 417 x 422 km, 51.6° (Epoch: 16 June)

Event Time Altitude Azimuth Distance (km) Brightness Sun altitude
Rises 23:46:41 0° 286° (WNW) 2,369 0.6 -16.8°
Reaches altitude 10° 23:48:49 10° 282° (WNW) 1,504 -0.6 -16.9°
Maximum altitude 23:52:06 52° 205° (SSW) 527 -3.6 -17.0°
Enters shadow 23:52:27 50° 180° (S) 547 -3.6 -17.1°
